Hourly Data Report for October 20, 2015

All times are specified in Local Standard Time (LST). Add 1 hour to adjust for Daylight Saving Time where and when it is observed.

PANGNIRTUNG
NUNAVUT

66°08'36.300" N
65°42'40.500" W
22.60 m
2403049
71826
WXP

Download Data

Hourly Data (October 2015)
Hourly Data Report for October 20, 2015
Temp Definition
°C
Dew Point Temp Definition
°C
Rel Hum Definition
%
Wind Dir Definition
10's deg

Wind Spd Definition
km/h
Visibility Definition
km
Stn Press Definition
kPa
Hmdx Definition


Wind Chill Definition


Weather Definition


TIME
00:00 -7.2 -13.2 62 8 18   100.29   -14 LegendNANA
01:00 -7.1 -13.1 62 8 20   100.28   -14 LegendNANA
02:00 -6.8 -12.7 63 9 19   100.29   -14 LegendNANA
03:00 -6.6 -12.9 61 8 14   100.30   -12 LegendNANA
04:00 -6.5 -12.7 61 9 15   100.33   -12 LegendNANA
05:00 -7.0 -12.6 65 9 16   100.33   -13 LegendNANA
06:00 -5.9 -13.5 55 13 16   100.36   -12 LegendNANA
07:00 -7.1 -13.3 61 13 27   100.40   -15 LegendNANA
08:00 -6.2 -13.3 57 15 24   100.46   -14 LegendNANA
09:00 -6.7 -13.2 60 14 16   100.49   -13 LegendNANA
10:00 -6.6 -13.2 59 15 18   100.51   -13 LegendNANA
11:00 -6.5 -11.6 67 11 11   100.55   -11 LegendNANA
12:00 -6.0 -11.2 66 7 6   100.56   -9 LegendNANA
13:00 -5.4 -11.5 62 12 6   100.60   -8 LegendNANA
14:00 -4.8 -11.7 58 8 15   100.62   -10 LegendNANA
15:00 -5.0 -11.1 62 9 17   100.65   -11 LegendNANA
16:00 -5.3 -11.5 62 9 21   100.70   -12 LegendNANA
17:00 -5.6 -11.9 61 9 21   100.74   -12 LegendNANA
18:00 -6.1 -12.6 60 10 15   100.77   -12 LegendNANA
19:00 -6.8 -13.2 60 12 13   100.83   -12 LegendNANA
20:00 -6.1 -13.5 56 11 8   100.85   -10 LegendNANA
21:00 -6.4 -14.0 55 10 11   100.87   -11 LegendNANA
22:00 -8.1 -15.4 56 8 7   100.86   -12 LegendNANA
23:00 -7.2 -14.7 55 10 9   100.87   -12 LegendNANA

Notes on Data Quality.

Legend

  • E = Estimated
  • M = Missing
  • NA = Not Available
  • ‡ = Partner data that is not subject to review by the National Climate Archives
Date modified: